FENGYUN 1C DEB, 30201

Orbit data source: Space-Track

FENGYUN 1C DEB, 30201 is space debris in SSO originally from a launch on Mon, 10 May 1999 UTC launched from the Taiyaun Space Center, China (TSC). Fengyun 1C debris stems from the Chinese weather satellite Fengyun-1C, which was intentionally destroyed by a Chinese anti-satellite missile in 2007. This event dramatically increased the amount of space debris, with thousands of trackable fragments posing hazards to satellites and human spaceflight. The Fengyun 1C debris cloud has become a focal point in discussions about space sustainability and the need for international regulations to prevent the creation of new debris.

Loading next visibility...
Identifier
30201, 1999-025VJ
Orbit
SSO
Country
Flag of CNCN / PRC
Related business
Manufacturer
Unknown
Mission
Spacecraft
Bus & Motor
Unknown
Mass
Unknown
Launch date (UTC)
1999-05-10 (27 years ago)
Launch vehicle
Unknown
Launch site
Taiyaun Space Center, China (TSC)
Object type
Payload
Rocket body
Debris
Shape & HBR
Unknown shape, 0.1 m
Radar Cross Section
Small (<0.1 m²)

Expand to show TLE details & history
Last TLE update: 7 hours ago

TLE from 7 hours ago
0 FENGYUN 1C DEB
1 30201U 99025VJ  26123.12264045  .00000794  00000-0  37138-3 0  9994
2 30201  99.4201 271.9709 0028164 270.9847  88.8102 14.23259541998386
Epoch: 2026-05-03T02:56Z
TLE epoch observation values (Epoch: 2026-05-03T02:56:36.134Z)
Latitude
-0.00006°
Longitude
6.78963°
Altitude
816.882 km
Speed
7.445 km/s
True Right ascension
18h 07m 53s
True Declination
0° 00' 00"
Sunlit
Object was in full shadow at epoch
Visualization orbit readout
Latitude
Unknown
Longitude
Unknown
Altitude
Unknown
Speed
Unknown
Apparent Right ascension
Unknown
Apparent Declination
Unknown
Sunlit
N/A
Visualization observer readout
Local Sidereal Time
17:59:31
Azimuth
Unknown
Elevation
Unknown
Doppler factor
Unknown
Orbital elements
Apogee altitude
831.789 km
Perigee altitude
791.291 km
Semi-major axis
7,189.677 km
Eccentricity
0.00282
Inclination
99.4201°
RAAN
271.9709°
Arg. of periapsis
270.9847°
True anomaly
89.13289°
Mean anomaly
88.8102°
Eccentric anomaly
88.97154°
Mean motion
3.56024 °/min
Orbital period
101.12 mins
BSTAR
0.00037138
Loading maneuver chart data...
Computing Atmospheric mass density...

Documentation

Showing up to 5 results
|